Weather History for Medford, WI

Change the Weather History Date:

Saturday, March 15, 2014

  Actual Average Record
Temperature  
Mean Temperature 18 °F -  
Max Temperature 28 °F 36 °F 64 °F (2012)
Min Temperature 9 °F 16 °F -9 °F (1956)
Degree Days  
Heating Degree Days 46    
Moisture  
Dew Point 9 °F    
Average Humidity 58    
Maximum Humidity 76    
Minimum Humidity 38    
Precipitation  
Precipitation 0.00 in - - ()
Sea Level Pressure  
Sea Level Pressure 30.08 in    
Wind  
Wind Speed 11 mph (North)    
Max Wind Speed 18 mph    
Max Gust Speed 23 mph    
Visibility 10 miles    
Events      
Averages and records for this station are not official NWS values.
T = Trace of Precipitation, MM = Missing Value Source: NWS Daily Summary

Daily Weather History Graph

Daily Weather History Graph

Search for Another Location

Airport:

Trip Planner

Search our weather history database for the weather conditions in past years. The results will help you decide how hot, cold, wet, or windy it might be!

Date:

Astronomy

Mar. 15, 2014 Rise Set
Actual Time 7:13 AM CDT 7:07 PM CDT
Civil Twilight 6:44 AM CDT 7:36 PM CDT
Nautical Twilight 6:10 AM CDT 8:10 PM CDT
Astronomical Twilight 5:35 AM CDT 8:45 PM CDT
Moon 6:26 PM CDT (3/15) 6:27 AM CDT (3/15)
Length of Visible Light 12h 52m
Length of Day
11h 53m
Waxing Gibbous, 99% of the Moon is Illuminated
Mar 15
Waxing Gibbous
Mar 16
Full
Mar 23
Last Quarter
Mar 30
New
Apr 7
First Quarter

Hourly Weather History & Observations

Time (CDT) Temp. Windchill Dew Point Humidity Pressure Visibility Wind Dir Wind Speed Gust Speed Precip Events Conditions
12:15 AM 27.0 °F 15.2 °F 20.3 °F 76% 29.82 in 10.0 mi NW 15.0 mph 23.0 mph N/A   Overcast
12:35 AM 26.1 °F 13.1 °F 18.9 °F 74% 29.82 in 10.0 mi NNW 17.3 mph 20.7 mph N/A   Overcast
12:55 AM 25.5 °F 14.9 °F 17.8 °F 72% 29.83 in 10.0 mi NW 11.5 mph - N/A   Overcast
1:15 AM 25.3 °F 14.1 °F 17.4 °F 72% 29.84 in 10.0 mi NW 12.7 mph 19.6 mph N/A   Overcast
1:35 AM 25.3 °F 13.6 °F 17.2 °F 71% 29.85 in 10.0 mi NNW 13.8 mph - N/A   Overcast
1:55 AM 25.3 °F 15.3 °F 17.1 °F 71% 29.86 in 10.0 mi NW 10.4 mph - N/A   Overcast
2:15 AM 25.2 °F 13.3 °F 16.7 °F 70% 29.86 in 10.0 mi NNW 13.8 mph - N/A   Overcast
2:35 AM 25.0 °F 14.8 °F 16.7 °F 71% 29.87 in 10.0 mi NNW 10.4 mph - N/A   Overcast
2:55 AM 24.8 °F 14.6 °F 17.2 °F 73% 29.88 in 10.0 mi NW 10.4 mph - N/A   Overcast
3:15 AM 24.6 °F 13.2 °F 17.8 °F 75% 29.88 in 10.0 mi NW 12.7 mph 16.1 mph N/A   Overcast
3:35 AM 24.3 °F 14.6 °F 16.7 °F 73% 29.89 in 10.0 mi NNW 9.2 mph - N/A   Overcast
3:55 AM 23.9 °F 14.2 °F 15.6 °F 71% 29.88 in 10.0 mi North 9.2 mph - N/A   Overcast
4:15 AM 23.7 °F 12.1 °F 14.0 °F 66% 29.89 in 10.0 mi North 12.7 mph 17.3 mph N/A   Overcast
4:35 AM 23.0 °F 13.9 °F 13.8 °F 68% 29.89 in 10.0 mi North 8.1 mph - N/A   Overcast
4:55 AM 22.6 °F 10.7 °F 12.9 °F 66% 29.92 in 10.0 mi North 12.7 mph - N/A   Overcast
5:15 AM 22.1 °F 11.3 °F 12.6 °F 67% 29.92 in 10.0 mi NNW 10.4 mph - N/A   Overcast
5:35 AM 21.2 °F 10.9 °F 11.7 °F 67% 29.93 in 10.0 mi NNW 9.2 mph 16.1 mph N/A   Mostly Cloudy
5:55 AM 21.0 °F 11.4 °F 11.8 °F 68% 29.94 in 10.0 mi NNW 8.1 mph - N/A   Mostly Cloudy
6:15 AM 20.3 °F 12.5 °F 12.0 °F 70% 29.94 in 10.0 mi North 5.8 mph - N/A   Overcast
6:35 AM 20.7 °F 9.5 °F 11.7 °F 68% 29.95 in 10.0 mi North 10.4 mph - N/A   Scattered Clouds
6:55 AM 19.9 °F 8.6 °F 11.3 °F 69% 29.96 in 10.0 mi NNW 10.4 mph - N/A   Clear
7:15 AM 19.9 °F 11.1 °F 11.7 °F 70% 29.98 in 10.0 mi NNW 6.9 mph - N/A   Mostly Cloudy
7:35 AM 19.9 °F 14.9 °F 12.2 °F 72% 29.99 in 10.0 mi North 3.5 mph - N/A   Overcast
7:55 AM 20.3 °F 12.5 °F 11.3 °F 68% 30.00 in 10.0 mi North 5.8 mph - N/A   Overcast
8:15 AM 20.3 °F 13.8 °F 11.1 °F 68% 30.01 in 10.0 mi North 4.6 mph - N/A   Overcast
8:35 AM 20.8 °F 12.1 °F 11.1 °F 66% 30.01 in 10.0 mi North 6.9 mph - N/A   Scattered Clouds
8:55 AM 20.5 °F 15.6 °F 11.1 °F 67% 30.03 in 10.0 mi North 3.5 mph - N/A   Scattered Clouds
9:15 AM 21.0 °F 12.4 °F 11.1 °F 66% 30.04 in 10.0 mi North 6.9 mph - N/A   Clear
9:35 AM 21.7 °F 12.3 °F 11.1 °F 64% 30.05 in 10.0 mi North 8.1 mph - N/A   Clear
9:55 AM 22.1 °F 13.7 °F 10.4 °F 61% 30.06 in 10.0 mi North 6.9 mph - N/A   Clear
10:15 AM 22.3 °F 14.9 °F 10.2 °F 60% 30.07 in 10.0 mi North 5.8 mph - N/A   Clear
10:35 AM 23.0 °F 17.0 °F 10.6 °F 59% 30.07 in 10.0 mi NNE 4.6 mph - N/A   Scattered Clouds
10:55 AM 23.7 °F 16.6 °F 10.6 °F 57% 30.08 in 10.0 mi NE 5.8 mph - N/A   Scattered Clouds
11:15 AM 24.6 °F 18.8 °F 11.5 °F 57% 30.08 in 10.0 mi North 4.6 mph - N/A   Clear
11:35 AM 25.2 °F 18.3 °F 11.5 °F 56% 30.08 in 10.0 mi NE 5.8 mph - N/A   Scattered Clouds
11:55 AM 25.5 °F 18.7 °F 11.5 °F 55% 30.09 in 10.0 mi NNE 5.8 mph - N/A   Scattered Clouds
12:15 PM 26.2 °F - 11.1 °F 53% 30.09 in 10.0 mi Calm Calm - N/A   Scattered Clouds
12:35 PM 26.6 °F - 10.2 °F 50% 30.10 in 10.0 mi Calm Calm - N/A   Mostly Cloudy
1:15 PM 27.1 °F 18.9 °F 10.6 °F 50% 30.11 in 10.0 mi NNW 8.1 mph - N/A   Mostly Cloudy
1:35 PM 27.9 °F 18.4 °F 11.3 °F 50% 30.11 in 10.0 mi North 10.4 mph - N/A   Scattered Clouds
1:55 PM 28.4 °F 21.2 °F 11.3 °F 49% 30.11 in 10.0 mi NNW 6.9 mph - N/A   Scattered Clouds
2:15 PM 28.4 °F 19.7 °F 11.3 °F 49% 30.12 in 10.0 mi NNW 9.2 mph - N/A   Scattered Clouds
2:35 PM 28.4 °F 19.1 °F 7.5 °F 41% 30.12 in 10.0 mi North 10.4 mph - N/A   Clear
2:55 PM 28.6 °F 20.7 °F 5.5 °F 38% 30.13 in 10.0 mi NW 8.1 mph - N/A   Clear
3:15 PM 28.4 °F 22.2 °F 6.6 °F 40% 30.13 in 10.0 mi North 5.8 mph 10.4 mph N/A   Clear
3:35 PM 28.8 °F 20.2 °F 6.4 °F 39% 30.14 in 10.0 mi North 9.2 mph 16.1 mph N/A   Clear
3:55 PM 28.4 °F 19.7 °F 7.3 °F 41% 30.14 in 10.0 mi NW 9.2 mph - N/A   Clear
4:15 PM 27.9 °F 21.5 °F 7.5 °F 42% 30.15 in 10.0 mi NNW 5.8 mph 10.4 mph N/A   Clear
4:35 PM 28.2 °F 21.0 °F 7.7 °F 42% 30.16 in 10.0 mi NW 6.9 mph - N/A   Clear
4:55 PM 28.0 °F 18.6 °F 7.2 °F 41% 30.16 in 10.0 mi NNE 10.4 mph - N/A   Clear
5:15 PM 27.1 °F 18.9 °F 6.8 °F 42% 30.17 in 10.0 mi North 8.1 mph - N/A   Clear
5:35 PM 27.0 °F 16.7 °F 6.4 °F 42% 30.18 in 10.0 mi North 11.5 mph - N/A   Clear
5:55 PM 26.2 °F 16.4 °F 7.3 °F 45% 30.19 in 10.0 mi North 10.4 mph - N/A   Clear
6:15 PM 25.5 °F 13.8 °F 5.7 °F 43% 30.20 in 10.0 mi North 13.8 mph - N/A   Clear
6:35 PM 24.6 °F 13.2 °F 3.9 °F 41% 30.22 in 10.0 mi North 12.7 mph - N/A   Clear
6:55 PM 23.5 °F 13.7 °F 4.8 °F 45% 30.23 in 10.0 mi North 9.2 mph - N/A   Clear
7:15 PM 22.3 °F 8.7 °F 4.1 °F 46% 30.24 in 10.0 mi North 16.1 mph - N/A   Clear
7:35 PM 21.2 °F 7.3 °F 3.4 °F 46% 30.25 in 10.0 mi North 16.1 mph 20.7 mph N/A   Clear
7:55 PM 19.8 °F 5.9 °F 3.4 °F 49% 30.26 in 10.0 mi NNE 15.0 mph - N/A   Clear
8:15 PM 18.5 °F 4.3 °F 2.7 °F 50% 30.28 in 10.0 mi NNE 15.0 mph - N/A   Clear
8:35 PM 16.9 °F 0.8 °F 3.6 °F 56% 30.29 in 10.0 mi NNE 18.4 mph - N/A   Clear
8:55 PM 15.6 °F -0.9 °F 1.0 °F 53% 30.30 in 10.0 mi NNE 18.4 mph 23.0 mph N/A   Clear
9:15 PM 14.7 °F 0.1 °F -0.0 °F 52% 30.31 in 10.0 mi North 13.8 mph - N/A   Clear
9:35 PM 13.8 °F -1.1 °F -0.6 °F 53% 30.33 in 10.0 mi North 13.8 mph 19.6 mph N/A   Clear
9:55 PM 12.9 °F -1.6 °F -0.4 °F 55% 30.34 in 10.0 mi NNE 12.7 mph - N/A   Clear
10:15 PM 12.2 °F -2.5 °F 0.1 °F 59% 30.34 in 10.0 mi NNE 12.7 mph - N/A   Clear
10:35 PM 11.3 °F -3.6 °F 0.5 °F 62% 30.36 in 10.0 mi NNE 12.7 mph - N/A   Clear
10:55 PM 10.9 °F -3.4 °F -2.2 °F 56% 30.36 in 10.0 mi NNE 11.5 mph - N/A   Clear
11:15 PM 10.4 °F -2.4 °F -3.1 °F 55% 30.37 in 10.0 mi NE 9.2 mph - N/A   Clear
11:35 PM 9.7 °F -5.0 °F -3.3 °F 56% 30.37 in 10.0 mi NNE 11.5 mph - N/A   Clear
11:55 PM 9.0 °F -4.2 °F -3.5 °F 57% 30.37 in 10.0 mi NE 9.2 mph - N/A   Clear